sat.trackr.live / text

‹ back to catalog

ONEWEB-0219

NORAD 48223 · 2021-031P

PAYLOAD ACTIVE UNKNOWN

§ Identity

Operator
Country
UK
Launch date
2021-04-25
Launch site
VOSTO
Launch vehicle
Mass (kg)
RCS (m²)

Purposes: comms

External: N2YO · Heavens-Above · Gunter

§ Orbital elements

Epoch: 2026-05-25T03:49:58.156032Z

Period
109.55 min
Inclination
87.8938°
Eccentricity
0.0001864
Mean motion
13.14503126 rev/d
Perigee alt
1,204.4 km
Apogee alt
1,207.2 km
Semi-major
7,583.9 km
B*
3.3666e-4
RAAN
294.2893°
Arg perigee
106.5744°
Mean anomaly
253.5591°
Rev number
24,535

§ Raw data

ONEWEB-02191 48223U 21031P   26145.15970088  .00000138  00000+0  33666-3 0  99902 48223  87.8938 294.2893 0001864 106.5744 253.5591 13.14503126245352

JSON: /api/v1/satellites/48223 · /tle

For live sub-satellite position, see the globe view (requires WebGL).

§ Visibility from observer

Set your observer location to see the next 7 days of passes ≥ 10°. The values pass through the URL so the page stays shareable.

No JS? Fill the form by hand. The geolocation button needs JavaScript.